CCA1146 ZBYN-ZBAA

Flight info

Callsign CCA1146
Flight time N/A
Altitude 35100
Route TONOV9ZD TONOV G212 AMVOG W61 NUDKU W56 DUGEB DUGEB5D
Aircraft A320/M-SDE3FGHIRWY/LB1

Departure

Time 2026-05-07 14:22
Airport Taiyuan Wusu International Airport (ZBYN)

Arrival

Time N/A
Airport Beijing Capital International Airport (ZBAA)
Time Latitude Longitude Altitude Speed Heading
2026-05-07 13:42 37.75139 112.62970 2535 ft 0 kts 82°
2026-05-07 14:03 37.75139 112.62965 2562 ft 2 kts 82°
2026-05-07 14:04 37.75136 112.62941 2561 ft 3 kts 82°
2026-05-07 14:04 37.75134 112.62916 2560 ft 3 kts 81°
2026-05-07 14:04 37.75131 112.62896 2557 ft 3 kts 37°
2026-05-07 14:04 37.75132 112.62894 2557 ft 1 kts 350°
2026-05-07 14:05 37.75117 112.62897 2555 ft 2 kts 350°
2026-05-07 14:05 37.75112 112.62898 2559 ft 1 kts 350°
2026-05-07 14:10 37.75123 112.62896 2559 ft 7 kts 350°
2026-05-07 14:10 37.75202 112.62876 2559 ft 12 kts 339°
2026-05-07 14:10 37.75219 112.62787 2558 ft 11 kts 254°
2026-05-07 14:10 37.75174 112.62756 2558 ft 8 kts 181°
2026-05-07 14:11 37.75127 112.62771 2557 ft 8 kts 145°
2026-05-07 14:11 37.75079 112.62847 2558 ft 14 kts 140°
2026-05-07 14:11 37.74980 112.62806 2559 ft 18 kts 212°
2026-05-07 14:11 37.74865 112.62828 2561 ft 18 kts 153°
2026-05-07 14:12 37.74748 112.62896 2563 ft 19 kts 158°
2026-05-07 14:12 37.74633 112.62959 2567 ft 18 kts 151°
2026-05-07 14:12 37.74531 112.63033 2569 ft 17 kts 181°
2026-05-07 14:12 37.74436 112.62988 2573 ft 12 kts 163°
2026-05-07 14:13 37.74382 112.63057 2573 ft 11 kts 126°
2026-05-07 14:13 37.74336 112.63137 2573 ft 12 kts 127°
2026-05-07 14:13 37.74276 112.63236 2570 ft 15 kts 127°
2026-05-07 14:13 37.74209 112.63346 2573 ft 17 kts 127°
2026-05-07 14:14 37.74133 112.63472 2569 ft 19 kts 127°
2026-05-07 14:14 37.74052 112.63607 2574 ft 19 kts 128°
2026-05-07 14:14 37.73971 112.63740 2571 ft 20 kts 127°
2026-05-07 14:14 37.73890 112.63875 2581 ft 19 kts 128°
2026-05-07 14:15 37.73809 112.63908 2581 ft 12 kts 207°
2026-05-07 14:15 37.73740 112.63867 2581 ft 12 kts 169°
2026-05-07 14:15 37.73669 112.63964 2583 ft 18 kts 127°
2026-05-07 14:15 37.73581 112.64113 2579 ft 24 kts 127°
2026-05-07 14:16 37.73475 112.64289 2583 ft 26 kts 127°
2026-05-07 14:16 37.73363 112.64472 2581 ft 27 kts 128°
2026-05-07 14:16 37.73250 112.64658 2585 ft 26 kts 128°
2026-05-07 14:16 37.73177 112.64778 2584 ft 26 kts 127°
2026-05-07 14:17 37.73060 112.64978 2584 ft 27 kts 126°
2026-05-07 14:17 37.72945 112.65166 2585 ft 28 kts 127°
2026-05-07 14:17 37.72833 112.65354 2578 ft 21 kts 127°
2026-05-07 14:17 37.72744 112.65501 2586 ft 21 kts 127°
2026-05-07 14:18 37.72673 112.65621 2587 ft 12 kts 128°
2026-05-07 14:18 37.72610 112.65610 2585 ft 9 kts 217°
2026-05-07 14:18 37.72600 112.65600 2586 ft 0 kts 217°
2026-05-07 14:20 37.72579 112.65580 2589 ft 5 kts 217°
2026-05-07 14:20 37.72558 112.65559 2584 ft 3 kts 217°
2026-05-07 14:20 37.72545 112.65544 2590 ft 3 kts 233°
2026-05-07 14:20 37.72542 112.65523 2589 ft 6 kts 266°
2026-05-07 14:21 37.72568 112.65462 2584 ft 0 kts 305°
2026-05-07 14:21 37.72569 112.65461 2584 ft 1 kts 305°
2026-05-07 14:21 37.72669 112.65291 2587 ft 62 kts 307°
2026-05-07 14:21 37.73078 112.64608 2590 ft 129 kts 307°
2026-05-07 14:22 37.73738 112.63526 2694 ft 170 kts 309°
2026-05-07 14:22 37.74463 112.62319 3353 ft 176 kts 308°
2026-05-07 14:22 37.75198 112.61048 4052 ft 181 kts 306°
2026-05-07 14:22 37.75956 112.59759 4702 ft 187 kts 310°
2026-05-07 14:23 37.76856 112.58448 5022 ft 208 kts 313°
2026-05-07 14:23 37.77864 112.57002 5365 ft 228 kts 311°
2026-05-07 14:23 37.78927 112.55428 5755 ft 253 kts 311°
2026-05-07 14:23 37.79704 112.54239 6180 ft 264 kts 310°
2026-05-07 14:24 37.81255 112.51792 6872 ft 272 kts 309°
2026-05-07 14:24 37.82410 112.49912 6991 ft 270 kts 309°
2026-05-07 14:24 37.83543 112.48032 7013 ft 269 kts 308°
2026-05-07 14:24 37.84669 112.46144 7016 ft 268 kts 308°
2026-05-07 14:25 37.85793 112.44256 7040 ft 270 kts 308°
2026-05-07 14:25 37.86926 112.42353 7901 ft 271 kts 308°